Regional Weather Roundup
Issued by NWS

Home | Current Version | Previous Version | Text Only | Print | Product List | Glossary Off
Versions: 1 2 3 4 5 6 7 8 9 10 11 12 13 14 15 16 17 18 19 20 21 22 23 24 25 26 27 28 29 30 31 32 33 34 35 36 37 38 39 40 41 42 43 44 45 46 47 48 49 50

000
ASUS43 KDTX 011610
RWRMI
MICHIGAN HOURLY REGIONAL WEATHER ROUNDUP
NATIONAL WEATHER SERVICE DETROIT/PONTIAC MI
1200 PM EDT FRI AUG 01 2014

NOTE: "FAIR" INDICATES FEW OR NO CLOUDS BELOW 12,000 FEET WITH NO
SIGNIFICANT WEATHER AND/OR OBSTRUCTION TO VISIBILITY.

MIZ047>049-052>055-059>063-066>070-074>076-081>083-011700-
SOUTHEAST LOWER MICHIGAN

CITY           SKY/WX    TMP DP  RH WIND       PRES   REMARKS
ADRIAN         MOSUNNY   79  61  53 NW5       30.12S
ALMA           SUNNY     76  63  65 W3        30.09S
ANN ARBOR      SUNNY     79  59  50 VRB3      30.11S
BAD AXE        MOSUNNY   76  64  67 W7        30.09S
CARO           SUNNY     79  64  60 W5        30.09R
DETROIT CITY   SUNNY     81  59  47 SW8       30.10S
DETROIT        MOSUNNY   78  63  59 S3        30.11S
FLINT          SUNNY     78  62  57 SW6       30.10S
GROSSE ILE     SUNNY     75  66  73 S3        30.10S
HILLSDALE      MOSUNNY   78  62  57 W5        30.13S
HOWELL         SUNNY     77  61  56 SW7       30.11S

CITY           SKY/WX    TMP DP  RH WIND       PRES   REMARKS
JACKSON        SUNNY     78  59  51 SW8       30.12S
LAMBERTVILLE   MOSUNNY   79  61  53 S3        30.12S
LANSING        SUNNY     77  61  57 W5        30.10S
LAPEER         FAIR      76  62  62 W3        30.10S
MASON          SUNNY     78  60  53 W6        30.11S
MONROE         SUNNY     79  63  57 SW3       30.10R
MT. CLEMENS    MOSUNNY   79  65  62 S8        30.09S
PONTIAC        MOSUNNY   78  59  51 W10       30.10S
PORT HOPE        N/A     74  64  71 VRB3      30.07R
PORT HURON     SUNNY     75  66  73 S5        30.10S
TRI CITIES     MOSUNNY   75  63  66 SW3       30.09S
TROY           SUNNY     78  62  58 CALM      30.11S
SAGINAW HB     SUNNY     79  59  50 W6        30.08S
$$
MIZ043>046-050>051-056>058-064>065-071>073-077>080-011700-
SOUTHWEST LOWER MICHIGAN

CITY           SKY/WX    TMP DP  RH WIND       PRES   REMARKS
BATTLE CREEK   SUNNY     78  60  53 W10       30.11F
BENTON HARBOR  SUNNY     76  60  57 W9        30.11R
BIG RAPIDS     SUNNY     76  59  55 NW10      30.08S
COLDWATER      SUNNY     79  62  55 NW3       30.12S
FREMONT        FAIR      75  65  70 W6        30.08S
HOLLAND        SUNNY     78  63  59 W6        30.11R
GRAND RAPIDS   MOSUNNY   80  63  55 SW10      30.10S
IONIA          FAIR      78  62  57 W6        30.09S
KALAMAZOO      MOSUNNY   80  59  48 SW10      30.11S
LUDINGTON      SUNNY     72  63  73 W5        30.08S
MARSHALL       SUNNY     78  60  55 W8        30.11S
MOUNT PLEASANT SUNNY     78  62  57 SW6       30.08R
MUSKEGON       MOSUNNY   77  60  55 W6        30.09S
SOUTH HAVEN    SUNNY     74  64  72 W8        30.11R
$$
MIZ016>042-011700-
NORTHERN LOWER MICHIGAN

CITY           SKY/WX    TMP DP  RH WIND       PRES   REMARKS
ALPENA         MOSUNNY   75  58  55 NE6       30.08R
BEAVER ISLAND  SUNNY     71  61  70 W6        30.08R
BELLAIRE       MOSUNNY   75  49  40 CALM      30.06S
CADILLAC       SUNNY     77  58  50 CALM      30.08S
CHARLEVOIX     MOSUNNY   72  63  72 N5        30.10S
FRANKFORT      SUNNY     77  61  58 W5        30.07S
GAYLORD        SUNNY     73  47  39 CALM      30.09R
GRAYLING       SUNNY     77  50  39 SW3       30.09S
HARBOR SPRINGS SUNNY     72  54  53 SW5       30.07S
HOUGHTON LAKE  SUNNY     73  62  68 W3        30.09S
MANISTEE       SUNNY     73  63  68 SW5       30.08S
OSCODA         PTSUNNY   77  60  56 W3        30.07S
PELLSTON       SUNNY     75  53  46 VRB5      30.07S
ROGERS CITY    SUNNY     65  63  93 N5        30.09S FOG
TRAVERSE CITY  SUNNY     76  56  49 CALM      30.06S
$$
MIZ007>008-015-011700-
EASTERN UPPER MICHIGAN

CITY           SKY/WX    TMP DP  RH WIND       PRES   REMARKS
KINROSS        SUNNY     70  52  52 NW6       30.07S
MACKINAC ISLAN SUNNY     68  57  68 W5        30.08R
NEWBERRY       SUNNY     71  56  59 NW8       30.07S
S. S. MARIE    SUNNY     71  51  49 VRB6      30.06S
MUNISING         N/A     66  55  67 NE3       30.07R
$$
MIZ004>006-011>014-085-011700-
CENTRAL UPPER MICHIGAN

CITY           SKY/WX    TMP DP  RH WIND       PRES   REMARKS
MANISTIQUE     SUNNY     72  54  54 S7        30.06S
ESCANABA       MOSUNNY   70  52  52 SE5       30.06S
MENOMINEE      SUNNY     72  61  68 SE5       30.04S
SAWYER-GWINN   SUNNY     68  54  60 NE7       30.07S
$$
MIZ001>003-009>011-084-011700-
WESTERN UPPER MICHIGAN

CITY           SKY/WX    TMP DP  RH WIND       PRES   REMARKS
IRON MOUNTAIN  SUNNY     74  57  55 CALM      30.05S
HOUGHTON       MOSUNNY   69  52  54 E5        30.07R
COPPER HARBOR    N/A     58  52  80 E3        30.08R
$$

ABBREVIATIONS USED IN REMARKS
   TC - TEMPERATURE IN CELSIUS
  WCI - WIND CHILL INDEX
   HX - HEAT INDEX
  VSB - VISIBILITY



USA.gov is the U.S. government's official web portal to all federal, state and local government web resources and services.